Location: Valdosta
(30.8330°N, 83.2790°W)
Time: 01:05:24
(UTC-05:00)

Daily predictions for brighter satellites

Satellite Brightness Start Highest point End
(mag) Time Altitude Azimuth Time Altitude Azimuth Time Altitude Azimuth
Milstar 3 4.0 04:18:28 40° SE 04:18:28 40° SE 04:23:44 10° E
Centaur D-1A AC-31 3.9 04:30:34 17° ESE 04:30:34 17° ESE 04:32:15 10° E
Lacrosse 5 4.4 04:33:47 16° NE 04:33:47 16° NE 04:35:52 10° E
Atlas Centaur 2 4.1 04:56:03 14° SE 04:56:03 14° SE 04:56:40 10° ESE
Nadezhda 1 Rocket 4.3 04:55:51 55° NE 04:57:00 65° E 05:03:17 10° SSE
Skynet4D Del rocket 3.8 05:21:58 58° S 05:22:02 58° S 05:27:39 10° ESE
Feng Yun 1-1 Rocket 4.5 05:23:53 10° NNE 05:29:15 64° ESE 05:34:34 10° S
Cosmos 2278 Rocket 3.0 05:39:58 10° S 05:45:26 53° ESE 05:50:55 10° NNE
Cosmos 614 Rocket 3.8 05:43:58 33° SW 05:46:07 62° WNW 05:51:10 10° N
Timation 1 Rocket 4.3 05:40:26 10° SSW 05:46:26 89° WNW 05:52:28 10° NNE
GPS 2-04 Rocket1 2.7 05:53:22 61° NW 05:53:47 66° NNW 05:58:03 10° ENE
PSLV R/B 4.2 05:55:15 35° NNE 05:55:15 35° NNE 05:58:01 10° E
KORONAS-FOTON 4.3 05:56:23 41° SW 05:56:23 41° SW 05:59:13 10° S
CZ-3A R/B 3.7 05:57:38 14° SSW 05:57:38 14° SSW 05:58:34 10° S
Cosmos 1400 Rocket 2.7 05:56:54 35° NNW 05:58:33 73° W 06:02:36 10° S
CZ-2C R/B 2.3 05:56:14 10° NNE 06:00:52 82° ESE 06:05:34 10° S
IDEFIX/ARIANE 42P 2.5 05:55:47 10° N 06:01:02 69° WNW 06:06:15 10° SSW
Cosmos 1076 Rocket 3.6 05:58:28 10° N 06:02:47 75° E 06:07:03 10° S
SL-08 ROCKET BODY 4.2 05:58:52 10° SSW 06:04:40 69° W 06:10:31 10° N
Cosmos 1844 Rocket 3.4 06:05:21 30° WNW 06:05:21 30° WNW 06:10:01 10° N
ORS 1 (USA 231) 4.5 06:12:40 44° SSW 06:13:16 60° SSE 06:15:51 10° ENE
ISS -3.4 06:13:29 40° WSW 06:13:54 43° SW 06:17:01 10° SSE
Okean 3 Rocket 3.4 06:10:15 10° N 06:14:40 72° W 06:19:01 10° S
Cosmos 1844 4.3 06:10:43 10° SW 06:15:53 34° WNW 06:21:03 10° N
Lacrosse 5 1.8 06:13:01 24° NW 06:16:00 70° SW 06:20:59 10° SSE
Meteor 1-16 Rocket 4.1 06:10:29 10° S 06:16:12 79° W 06:21:46 10° N
Okean-O 3.0 06:12:51 10° N 06:16:58 39° WNW 06:21:04 10° SW
COSMO-SKYMED 1 2.7 06:13:07 10° S 06:17:20 53° W 06:21:27 11° NNW
Cosmos 1766 Rocket 4.1 06:14:08 10° N 06:18:29 60° E 06:22:49 10° SSE
FAST Rocket 3.7 06:25:58 10° S 06:28:35 86° W 06:31:23 10° N
Cosmos 2184 Rocket 3.9 06:22:50 10° S 06:29:03 78° W 06:35:21 10° N
CZ-4 R/B 3.6 06:26:00 10° NE 06:29:35 29° E 06:33:05 10° SSE
Cosmos 1850 Rocket 4.2 06:25:09 10° SW 06:30:09 47° WNW 06:35:14 10° N
Cosmos 332 Rocket 3.8 06:31:38 10° NNW 06:36:33 89° ENE 06:41:24 10° SSE
Shenzhou-11 Module 4.3 06:36:31 12° NNW 06:37:06 12° NNW 06:38:21 10° N
COSMOS 2406 3.3 06:31:47 10° NNW 06:37:18 56° WSW 06:42:49 10° S
DELTA 2 R/B (1) 4.2 06:33:00 15° NW 06:37:24 46° NNE 06:42:45 10° E
MSX 4.0 06:34:22 10° N 06:39:53 50° WNW 06:45:23 10° SSW
Atlas Centaur 2 3.5 06:39:18 10° SW 06:41:22 14° SSW 06:43:38 10° S
SL-14 R/B 4.1 06:41:27 10° NNW 06:44:45 28° W 06:48:03 10° SSW
Meteor 2-8 Rocket 4.4 06:39:20 10° NNW 06:45:26 66° W 06:51:27 10° S
Tiangong 2 2.3 06:43:43 16° WNW 06:45:31 25° NNW 06:48:16 10° NE
Longmarch 3A Rocket 1.9 06:44:48 10° WSW 06:46:18 30° S 06:48:33 10° ESE
Cosmos 2297 4.0 06:43:11 10° SSW 06:48:53 75° ESE 06:54:36 10° NNE
CZ-4C R/B 3.1 06:42:28 10° NNW 06:50:02 78° WSW 06:58:11 10° SSE
Cosmos 1726 4.2 06:46:46 10° SSE 06:50:06 31° E 06:53:25 10° NNE
Cosmos 1484 Rocket 2.6 06:47:17 10° N 06:50:57 62° WNW 06:54:40 10° SSW
USA 229 DEB 3.7 06:44:44 10° SW 06:51:20 59° WNW 06:58:06 10° NNE
SL-27 R/B 4.3 06:48:04 10° N 06:51:25 34° ENE 06:54:44 10° SE
USA 229 3.7 06:44:50 10° SW 06:51:27 59° WNW 06:58:12 10° NNE
NOSS 3-1 (A) 4.5 06:48:49 10° S 06:54:05 47° ESE 06:59:49 10° NE
Cosmos 1626 2.3 06:52:14 10° NNW 06:55:51 51° W 06:59:28 10° S
Milstar 3 3.0 06:53:29 10° W 07:00:32 72° S 07:07:29 10° E
Cosmos 1570 Rocket 4.0 06:56:23 10° NNW 07:01:36 74° WSW 07:06:47 10° S
Cosmos 1315 Rocket 4.0 06:59:02 10° NW 07:02:11 23° W 07:05:20 10° SW
CZ-3 R/B 3.2 07:05:23 10° SSW 07:09:17 16° S 07:11:35 10° SE
